Flag for Bosnia-Herzegovina Weather past 2 weeks in Mostar, Bosnia-Herzegovina

Now
52 °F

Passing clouds.


Feels Like: 51 °F
Forecast: 40 / 62 °F
Wind: 3 mph from Southeast

Location: Mostar

Current Time: Oct 21, 2014 at 5:59:55 AM

Latest Report: Oct 21, 2014 at 5:00 AM


Visibility: N/A

Pressure: 30.04 "Hg

Humidity: 94%

Dew point: 50 °F

Location of MostarLocation

Historic Weather in Mostar — Graph

°F

Mostar temperature yesterday

Maximum temperature yesterday: 75 °F (at 3:00 PM)
Minimum temperature yesterday: 45 °F (at 7:00 AM)
Average temperature yesterday: 58 °F

Past Weeks' High & Low Weather Summary

 TemperatureHumidityPressure
High82 °F (Oct 11, 3:00 PM)100% (Oct 7, 1:00 AM)30.30 "Hg (Oct 7, 1:00 AM)
Low45 °F (Oct 20, 7:00 AM)32% (Oct 18, 2:00 PM)29.86 "Hg (Oct 15, 5:00 PM)
Average64 °F77%30.06 "Hg
* Reported Oct 6 4:00 AM — Oct 21 4:00 AM, Mostar, Weather by CustomWeather, © 2014

Note: Actual official high and low records may vary slightly from our data, if they occured in-between our weather recording intervals... More about our weather records

Advertising

Mostar weather history for previous 24 hours

 ConditionsComfort  
Time TempWeatherWind HumidityBarometerVisibility
4:00 AM
Oct 21
52 °FPassing clouds.2 mph94%30.04 "Hg6 mi
3:00 AM50 °FPassing clouds.3 mph100%30.07 "HgN/A
2:00 AM52 °FClear.2 mph94%30.07 "Hg10 mi
1:00 AM50 °FClear.3 mph94%30.07 "Hg10 mi
12:00 AM52 °FClear.2 mph94%30.07 "Hg10 mi
11:00 PM
Oct 20
55 °FClear.1 mph88%30.09 "Hg10 mi
10:00 PM57 °FClear.1 mph82%30.09 "Hg10 mi
9:00 PM59 °FClear.1 mph82%30.09 "Hg10 mi
8:00 PM63 °FClear.3 mph73%30.09 "Hg10 mi
7:00 PM64 °FPassing clouds.6 mph68%30.09 "HgN/A
6:00 PM68 °FPassing clouds.5 mph60%30.09 "HgN/A
5:00 PM73 °FSunny.5 mph47%30.09 "Hg10 mi
4:00 PM75 °FPassing clouds.3 mph41%30.09 "HgN/A
3:00 PM75 °FSunny.3 mph41%30.12 "Hg10 mi
2:00 PM73 °FPassing clouds.5 mph44%30.15 "HgN/A
1:00 PM70 °FSunny.2 mph50%30.18 "Hg10 mi
12:00 PM66 °FSunny.2 mph56%30.21 "Hg10 mi
11:30 AM64 °FSunny.2 mph60%30.21 "Hg10 mi
11:00 AM63 °FSunny.2 mph64%30.24 "Hg10 mi
10:30 AM61 °FSunny.2 mph68%30.24 "Hg10 mi
10:00 AM57 °FSunny.2 mph77%30.24 "Hg10 mi
9:30 AM55 °FSunny.1 mph82%30.24 "Hg10 mi
9:00 AM52 °FPassing clouds.2 mph94%30.24 "HgN/A
8:30 AM48 °FClear.3 mph100%30.24 "HgN/A
8:00 AM46 °FSnow. Clear.1 mph93%30.24 "HgN/A
7:30 AM45 °FClear.2 mph93%30.24 "Hg10 mi
7:00 AM45 °FClear.2 mph100%30.24 "Hg10 mi
5:00 AM46 °FClear.2 mph93%30.24 "Hg10 mi
Weather by CustomWeather, © 2014

See weather overviewHow to use our weather pages